This is the latest recevied weather packets stored in our database for station/object MB7UKB-10. If no packets are shown the sender has not sent any weather packets the latest 10 day(s).
| Time | Temp. | Humidity | Pressure | Rain* | Wind** | Luminosity | Snow |
|---|---|---|---|---|---|---|---|
| 1788661239 | 13.89° C | 78% | 1024.1 hPa | 0 mm | - | - | - |
| 1788659437 | 13.89° C | 78% | 1024.6 hPa | 0 mm | - | - | - |
| 1788657638 | 13.89° C | 78% | 1024.6 hPa | 0 mm | - | - | - |
| 1788655838 | 13.89° C | 77% | 1024.9 hPa | 0 mm | - | - | - |
| 1788654038 | 14.44° C | 75% | 1025 hPa | 0 mm | - | - | - |
| 1788652238 | 14.44° C | 74% | 1025.4 hPa | 0 mm | - | - | - |
| 1788650438 | 14.44° C | 75% | 1025.3 hPa | 0 mm | - | - | - |
| 1788648638 | 14.44° C | 73% | 1025.4 hPa | 0 mm | - | - | - |
| 1788646837 | 14.44° C | 71% | 1025.2 hPa | 0 mm | - | - | - |
| 1788645038 | 15.56° C | 67% | 1025.2 hPa | 0 mm | - | - | - |
| 1788643238 | 15.56° C | 64% | 1025.3 hPa | 0 mm | - | - | - |
| 1788639639 | 16.67° C | 59% | 1025 hPa | 0 mm | - | - | - |
| 1788637839 | 17.22° C | 54% | 1024.9 hPa | 0 mm | - | - | - |
| 1788636039 | 18.33° C | 51% | 1024.6 hPa | 0 mm | - | - | - |
| 1788634239 | 19.44° C | 46% | 1024.4 hPa | 0 mm | - | - | - |
| 1788632439 | 20.56° C | 44% | 1024.3 hPa | 0 mm | - | - | - |
| 1788630639 | 21.11° C | 42% | 1024.2 hPa | 0 mm | - | - | - |
| 1788628839 | 22.78° C | 39% | 1024.2 hPa | 0 mm | - | - | - |
| 1788627039 | 23.33° C | 38% | 1024.2 hPa | 0 mm | - | - | - |
| 1788625239 | 23.33° C | 37% | 1024.2 hPa | 0 mm | - | - | - |
| 1788623438 | 23.89° C | 37% | 1024.1 hPa | 0 mm | - | - | - |
| 1788621638 | 23.89° C | 38% | 1024.3 hPa | 0 mm | - | - | - |
| 1788619838 | 22.78° C | 39% | 1024.6 hPa | 0 mm | - | - | - |
| 1788618039 | 23.33° C | 39% | 1024.4 hPa | 0 mm | - | - | - |
| 1788616238 | 22.78° C | 40% | 1024.6 hPa | 0 mm | - | - | - |
* Rain latest hour (hover to see other rain measurements)
** Current wind speed in m/s (hover to see current wind gust speed)